Regional Weather Roundup
Issued by NWS

Home | Current Version | Previous Version | Graphics & Text | Print | Product List | Glossary On
Versions: 1 2 3 4 5 6 7 8 9 10 11 12 13 14 15 16 17 18 19 20 21 22 23 24 25 26 27 28 29 30 31 32 33 34 35 36 37 38 39 40 41 42 43 44 45 46 47 48 49 50
000
ASUS45 KCYS 111110
RWRWY

WYOMING REGIONAL WEATHER ROUNDUP
NATIONAL WEATHER SERVICE CHEYENNE WY
500 AM MDT FRI JUL 11 2014

NOTE:  "FAIR" INDICATES FEW OR NO CLOUDS BELOW 12,000 FEET
WITH NO SIGNIFICANT WEATHER AND/OR OBSTRUCTIONS TO VISIBILITY.

WYZ001-111200-
YELLOWSTONE NATIONAL PARK

CITY           SKY/WX    TMP DP  RH WIND       PRES   REMARKS
LK YELLOWSTONE   N/A     43  41  93 CALM      30.30R
W YELLOWSTONE  NOT AVBL

$$
WYZ002>013-054>058-071-098>099-111200-
NORTHERN WYOMING

CITY           SKY/WX    TMP DP  RH WIND       PRES   REMARKS
JACKSON        PTCLDY    48  45  87 N3        30.20R
CODY           CLEAR     66  50  55 SW13      30.05R
GREYBULL       PTCLDY    67  50  54 CALM      29.98R
WORLAND        PTCLDY    64  53  67 S9        30.00R
SHERIDAN       PTCLDY    57  52  83 W3        29.97R
BUFFALO        MOCLDY    65  53  65 CALM      30.05R
GILLETTE       PTCLDY    61  56  83 S6        30.00R
HULETT         FAIR      63  55  77 MISG      30.02
NEWCASTLE      FAIR      63  54  72 N7        30.02

$$
WYZ014>020-022>026-101>103-111200-
CENTRAL WYOMING

CITY           SKY/WX    TMP DP  RH WIND       PRES   REMARKS
BIG PINEY      MOCLDY    51  48  89 N7        30.23R
PINEDALE       PTSUNNY   50  48  93 NW5       30.24S
DUBOIS         FAIR      54  43  66 W9        30.22R
LANDER         MOCLDY    64  51  62 SW12      30.09R
RIVERTON       MOCLDY    65  53  65 E3        30.09R
CASPER         CLOUDY    67  53  61 SW10      30.08S
DOUGLAS        MOCLDY    64  61  90 CALM      30.08R

$$
WYZ021-027>030-104>119-111200-
SOUTHERN WYOMING

CITY           SKY/WX    TMP DP  RH WIND       PRES   REMARKS
EVANSTON       CLOUDY    56  54  93 S6        30.23R
KEMMERER       PTSUNNY   55  50  82 NW10      30.23S
FORT BRIDGER   CLOUDY    61  53  74 W9        30.25R
ROCK SPRINGS   CLOUDY    59  54  83 SW6       30.23S
DIXON          FAIR      58  54  86 CALM      30.24R
RAWLINS        MOCLDY    60  52  74 SE5       30.21R
SARATOGA       FAIR      59  54  82 S8        30.24R
LARAMIE        CLOUDY    58  53  84 S6        30.23S
CHEYENNE       PTCLDY    63  55  75 N5        30.15S
TORRINGTON     CLOUDY    65  64  97 S3        30.03R FOG

$$


USA.gov is the U.S. government's official web portal to all federal, state and local government web resources and services.